RYR11 ESSA-EYKA

Flight info

Callsign RYR11
Flight time 0h 57m
Altitude 27000
Route BABAP P156 RASEL/N0466F310 Y40 LITPA DCT PELUT
Aircraft B38M/M-SDE1FGHILORVWXY/HB1

Departure

Time 2026-04-26 07:55
Airport Stockholm-Arlanda Airport (ESSA)

Arrival

Time 2026-04-26 08:53
Airport Kaunas International Airport (EYKA)
Time Latitude Longitude Altitude Speed Heading
2026-04-26 07:25 59.64755 17.92452 114 ft 0 kts 41°
2026-04-26 07:46 59.64739 17.92427 110 ft 4 kts 34°
2026-04-26 07:47 59.64737 17.92423 110 ft 0 kts 32°
2026-04-26 07:49 59.64723 17.92409 110 ft 4 kts 13°
2026-04-26 07:50 59.64704 17.92421 112 ft 0 kts 285°
2026-04-26 07:50 59.64704 17.92420 112 ft 0 kts 282°
2026-04-26 07:51 59.64711 17.92373 110 ft 12 kts 285°
2026-04-26 07:52 59.64682 17.92200 114 ft 15 kts 194°
2026-04-26 07:52 59.64570 17.92156 115 ft 17 kts 190°
2026-04-26 07:52 59.64465 17.92119 113 ft 16 kts 190°
2026-04-26 07:52 59.64354 17.92065 115 ft 17 kts 216°
2026-04-26 07:53 59.64381 17.91903 113 ft 13 kts 331°
2026-04-26 07:53 59.64394 17.91884 114 ft 0 kts 315°
2026-04-26 07:54 59.64395 17.91882 114 ft 1 kts 312°
2026-04-26 07:54 59.64409 17.91808 111 ft 13 kts 282°
2026-04-26 07:54 59.64462 17.91599 109 ft 17 kts 348°
2026-04-26 07:54 59.64724 17.91686 110 ft 78 kts
2026-04-26 07:55 59.65523 17.91967 110 ft 154 kts 12°
2026-04-26 07:55 59.66712 17.92417 613 ft 184 kts
2026-04-26 07:55 59.68033 17.92913 1546 ft 196 kts
2026-04-26 07:55 59.69333 17.93371 2879 ft 186 kts
2026-04-26 07:56 59.70575 17.93810 4059 ft 180 kts
2026-04-26 07:56 59.71827 17.94251 4902 ft 187 kts
2026-04-26 07:56 59.73116 17.94710 5027 ft 188 kts
2026-04-26 07:56 59.74398 17.95233 4998 ft 191 kts 11°
2026-04-26 07:57 59.75229 17.96040 5092 ft 217 kts 36°
2026-04-26 07:57 59.76204 17.99948 5860 ft 265 kts 78°
2026-04-26 07:57 59.76138 18.02434 6399 ft 277 kts 95°
2026-04-26 07:57 59.75847 18.06206 7415 ft 277 kts 91°
2026-04-26 07:58 59.75602 18.10030 8385 ft 280 kts 90°
2026-04-26 07:58 59.75356 18.13882 9371 ft 283 kts 89°
2026-04-26 07:58 59.75282 18.17752 10272 ft 282 kts 81°
2026-04-26 07:58 59.75287 18.21762 10779 ft 300 kts 82°
2026-04-26 07:59 59.75275 18.26050 11143 ft 322 kts 82°
2026-04-26 07:59 59.75249 18.30620 11504 ft 340 kts 83°
2026-04-26 07:59 59.75190 18.35414 12008 ft 355 kts 88°
2026-04-26 07:59 59.74514 18.40215 12896 ft 372 kts 109°
2026-04-26 08:00 59.72966 18.44455 13670 ft 391 kts 132°
2026-04-26 08:00 59.70669 18.47465 14350 ft 405 kts 154°
2026-04-26 08:00 59.68020 18.49512 14929 ft 413 kts 155°
2026-04-26 08:00 59.65336 18.51691 15540 ft 419 kts 155°
2026-04-26 08:01 59.62621 18.53925 16130 ft 427 kts 155°
2026-04-26 08:01 59.59866 18.56205 16820 ft 433 kts 154°
2026-04-26 08:01 59.57070 18.58523 17450 ft 438 kts 154°
2026-04-26 08:01 59.54238 18.60869 18026 ft 445 kts 155°
2026-04-26 08:02 59.51368 18.63244 18555 ft 451 kts 154°
2026-04-26 08:02 59.48452 18.65649 19058 ft 457 kts 155°
2026-04-26 08:02 59.45503 18.68080 19533 ft 462 kts 155°
2026-04-26 08:02 59.42536 18.70627 20005 ft 466 kts 148°
2026-04-26 08:03 59.39843 18.74002 20463 ft 467 kts 141°
2026-04-26 08:03 59.37122 18.77599 20883 ft 474 kts 141°
2026-04-26 08:03 59.34378 18.81239 21352 ft 480 kts 141°
2026-04-26 08:03 59.31590 18.84938 21820 ft 485 kts 141°
2026-04-26 08:04 59.28779 18.88660 22278 ft 491 kts 141°
2026-04-26 08:04 59.25938 18.92418 22732 ft 496 kts 141°
2026-04-26 08:04 59.23060 18.96215 23189 ft 501 kts 141°
2026-04-26 08:04 59.20150 19.00047 23609 ft 506 kts 141°
2026-04-26 08:05 59.17220 19.03896 23988 ft 510 kts 141°
2026-04-26 08:05 59.14266 19.07769 24413 ft 513 kts 141°
2026-04-26 08:05 59.11292 19.11661 24833 ft 516 kts 141°
2026-04-26 08:05 59.08305 19.15561 25244 ft 519 kts 141°
2026-04-26 08:06 59.05297 19.19480 25635 ft 521 kts 141°
2026-04-26 08:06 59.02310 19.23365 25980 ft 524 kts 142°
2026-04-26 08:06 58.99233 19.27224 26336 ft 529 kts 144°
2026-04-26 08:06 58.96103 19.31016 26734 ft 531 kts 144°
2026-04-26 08:07 58.92955 19.34849 26996 ft 537 kts 144°
2026-04-26 08:07 58.89768 19.38732 27069 ft 547 kts 144°
2026-04-26 08:07 58.86508 19.42693 26952 ft 557 kts 144°
2026-04-26 08:07 58.83210 19.46693 26975 ft 563 kts 144°
2026-04-26 08:08 58.79878 19.50724 26984 ft 565 kts 144°
2026-04-26 08:08 58.76530 19.54765 26982 ft 565 kts 144°
2026-04-26 08:08 58.73197 19.58780 26982 ft 565 kts 144°
2026-04-26 08:08 58.69866 19.62783 26983 ft 565 kts 144°
2026-04-26 08:09 58.66529 19.66783 26982 ft 565 kts 144°
2026-04-26 08:09 58.63226 19.70735 26957 ft 566 kts 144°
2026-04-26 08:09 58.59871 19.74738 26988 ft 568 kts 144°
2026-04-26 08:09 58.56514 19.78736 27075 ft 567 kts 144°
2026-04-26 08:10 58.53171 19.82708 26998 ft 565 kts 144°
2026-04-26 08:10 58.49825 19.86674 26970 ft 565 kts 144°
2026-04-26 08:10 58.46479 19.90632 26977 ft 566 kts 144°
2026-04-26 08:10 58.43126 19.94588 26977 ft 566 kts 144°
2026-04-26 08:11 58.39782 19.98526 26978 ft 566 kts 144°
2026-04-26 08:11 58.36422 20.02473 26975 ft 566 kts 144°
2026-04-26 08:11 58.33072 20.06398 26974 ft 566 kts 144°
2026-04-26 08:11 58.29719 20.10319 26914 ft 566 kts 145°
2026-04-26 08:12 58.26357 20.14242 26950 ft 567 kts 145°
2026-04-26 08:12 58.22986 20.18167 27045 ft 567 kts 145°
2026-04-26 08:12 58.19674 20.22013 26992 ft 564 kts 145°
2026-04-26 08:12 58.16321 20.25899 26966 ft 563 kts 145°
2026-04-26 08:13 58.12975 20.29769 26967 ft 563 kts 145°
2026-04-26 08:13 58.09630 20.33631 26959 ft 563 kts 145°
2026-04-26 08:13 58.06278 20.37493 26967 ft 563 kts 145°
2026-04-26 08:13 58.02900 20.41252 26962 ft 565 kts 149°
2026-04-26 08:14 57.99425 20.44720 26972 ft 565 kts 149°
2026-04-26 08:14 57.95928 20.48147 26956 ft 566 kts 150°
2026-04-26 08:14 57.92418 20.51547 26920 ft 566 kts 150°
2026-04-26 08:14 57.88907 20.54937 27018 ft 568 kts 150°
2026-04-26 08:15 57.85408 20.58310 26990 ft 563 kts 150°
2026-04-26 08:15 57.81928 20.61655 26963 ft 562 kts 150°
2026-04-26 08:15 57.78449 20.64993 26961 ft 562 kts 150°
2026-04-26 08:15 57.75012 20.68283 26960 ft 562 kts 150°
2026-04-26 08:16 57.71525 20.71614 26962 ft 562 kts 150°
2026-04-26 08:16 57.68042 20.74934 26950 ft 562 kts 150°
2026-04-26 08:16 57.64556 20.78249 26960 ft 562 kts 150°
2026-04-26 08:16 57.61067 20.81560 26958 ft 562 kts 150°
2026-04-26 08:17 57.57578 20.84864 26897 ft 563 kts 150°
2026-04-26 08:17 57.54073 20.88175 27011 ft 567 kts 151°
2026-04-26 08:17 57.50558 20.91489 26996 ft 563 kts 151°
2026-04-26 08:17 57.47083 20.94758 26981 ft 558 kts 151°
2026-04-26 08:18 57.43618 20.98011 26948 ft 557 kts 151°
2026-04-26 08:18 57.40203 21.01210 26943 ft 557 kts 151°
2026-04-26 08:18 57.36741 21.04447 26939 ft 557 kts 151°
2026-04-26 08:18 57.33283 21.07673 26936 ft 557 kts 151°
2026-04-26 08:19 57.29813 21.10903 26935 ft 557 kts 151°
2026-04-26 08:19 57.26342 21.14127 26932 ft 557 kts 151°
2026-04-26 08:19 57.22875 21.17341 26874 ft 558 kts 151°
2026-04-26 08:19 57.19389 21.20565 26897 ft 563 kts 151°
2026-04-26 08:20 57.15877 21.23805 26975 ft 561 kts 152°
2026-04-26 08:20 57.12410 21.27000 26967 ft 554 kts 152°
2026-04-26 08:20 57.08965 21.30166 26941 ft 552 kts 152°
2026-04-26 08:20 57.05522 21.33324 26934 ft 552 kts 152°
2026-04-26 08:21 57.02083 21.36471 26931 ft 552 kts 152°
2026-04-26 08:21 56.98636 21.39619 26935 ft 552 kts 152°
2026-04-26 08:21 56.95195 21.42757 26926 ft 552 kts 152°
2026-04-26 08:21 56.91799 21.45845 26927 ft 552 kts 152°
2026-04-26 08:22 56.88352 21.48974 26929 ft 552 kts 152°
2026-04-26 08:22 56.84912 21.52090 26929 ft 552 kts 152°
2026-04-26 08:22 56.81458 21.55211 26979 ft 550 kts 152°
2026-04-26 08:22 56.78046 21.58290 26963 ft 542 kts 152°
2026-04-26 08:23 56.74671 21.61329 26938 ft 540 kts 152°
2026-04-26 08:23 56.71296 21.64361 26930 ft 540 kts 152°
2026-04-26 08:23 56.67920 21.67388 26920 ft 540 kts 152°
2026-04-26 08:23 56.64546 21.70407 26916 ft 540 kts 152°
2026-04-26 08:24 56.61175 21.73418 26915 ft 540 kts 152°
2026-04-26 08:24 56.57796 21.76429 26911 ft 540 kts 152°
2026-04-26 08:24 56.54460 21.79398 26874 ft 541 kts 152°
2026-04-26 08:24 56.51063 21.82415 26875 ft 547 kts 152°
2026-04-26 08:25 56.47639 21.85450 26895 ft 549 kts 152°
2026-04-26 08:25 56.44223 21.88472 26953 ft 544 kts 153°
2026-04-26 08:25 56.40841 21.91460 26953 ft 538 kts 152°
2026-04-26 08:25 56.37675 21.94965 26876 ft 532 kts 138°
2026-04-26 08:26 56.34982 21.99495 26911 ft 528 kts 130°
2026-04-26 08:26 56.32396 22.04212 26903 ft 529 kts 130°
2026-04-26 08:26 56.29819 22.08962 26891 ft 528 kts 130°
2026-04-26 08:26 56.27255 22.13706 26894 ft 528 kts 130°
2026-04-26 08:27 56.24692 22.18445 26897 ft 528 kts 130°
2026-04-26 08:27 56.22129 22.23176 26900 ft 528 kts 130°
2026-04-26 08:27 56.19558 22.27913 26934 ft 524 kts 131°
2026-04-26 08:27 56.17023 22.32575 26918 ft 521 kts 131°
2026-04-26 08:28 56.14487 22.37234 26863 ft 523 kts 130°
2026-04-26 08:28 56.11960 22.41858 26861 ft 527 kts 131°
2026-04-26 08:28 56.09396 22.46544 26874 ft 527 kts 131°
2026-04-26 08:28 56.06825 22.51234 26879 ft 526 kts 131°
2026-04-26 08:29 56.04256 22.55910 26879 ft 526 kts 131°
2026-04-26 08:29 56.01685 22.60581 26869 ft 527 kts 131°
2026-04-26 08:29 55.99117 22.65238 26867 ft 527 kts 131°
2026-04-26 08:29 55.96541 22.69898 26865 ft 527 kts 131°
2026-04-26 08:30 55.93963 22.74554 26851 ft 527 kts 131°
2026-04-26 08:30 55.91388 22.79193 26856 ft 527 kts 131°
2026-04-26 08:30 55.88807 22.83836 26864 ft 527 kts 131°
2026-04-26 08:30 55.86231 22.88460 26861 ft 527 kts 131°
2026-04-26 08:31 55.83645 22.93091 26862 ft 527 kts 131°
2026-04-26 08:31 55.81057 22.97718 26863 ft 527 kts 131°
2026-04-26 08:31 55.78473 23.02329 26861 ft 527 kts 131°
2026-04-26 08:31 55.75884 23.06940 26902 ft 525 kts 132°
2026-04-26 08:32 55.73318 23.11499 26858 ft 517 kts 132°
2026-04-26 08:32 55.70783 23.15996 25690 ft 519 kts 132°
2026-04-26 08:32 55.68214 23.20538 24451 ft 518 kts 132°
2026-04-26 08:32 55.65683 23.25008 23335 ft 509 kts 132°
2026-04-26 08:33 55.63197 23.29390 21957 ft 500 kts 133°
2026-04-26 08:33 55.60776 23.33650 20703 ft 492 kts 133°
2026-04-26 08:33 55.58375 23.37869 19541 ft 480 kts 134°
2026-04-26 08:33 55.56057 23.41937 19202 ft 452 kts 134°
2026-04-26 08:34 55.53884 23.45745 18821 ft 429 kts 134°
2026-04-26 08:34 55.51812 23.49364 18556 ft 407 kts 134°
2026-04-26 08:34 55.49837 23.52818 18106 ft 393 kts 134°
2026-04-26 08:34 55.47930 23.56149 17651 ft 379 kts 134°
2026-04-26 08:35 55.46010 23.59201 17219 ft 366 kts 147°
2026-04-26 08:35 55.43741 23.60947 16892 ft 348 kts 169°
2026-04-26 08:35 55.41399 23.61675 16582 ft 339 kts 173°
2026-04-26 08:35 55.39026 23.62314 16215 ft 349 kts 174°
2026-04-26 08:36 55.36632 23.62914 15878 ft 354 kts 174°
2026-04-26 08:36 55.34187 23.63502 15515 ft 354 kts 175°
2026-04-26 08:36 55.31749 23.64070 15159 ft 353 kts 175°
2026-04-26 08:36 55.29313 23.64629 14817 ft 352 kts 175°
2026-04-26 08:37 55.26884 23.65182 14463 ft 351 kts 175°
2026-04-26 08:37 55.24461 23.65731 14124 ft 350 kts 175°
2026-04-26 08:37 55.22048 23.66277 13754 ft 349 kts 175°
2026-04-26 08:37 55.19643 23.66821 13357 ft 347 kts 175°
2026-04-26 08:38 55.17258 23.67359 12977 ft 345 kts 175°
2026-04-26 08:38 55.14891 23.67892 12621 ft 342 kts 175°
2026-04-26 08:38 55.12544 23.68422 12275 ft 339 kts 175°
2026-04-26 08:38 55.10278 23.69504 11877 ft 340 kts 154°
2026-04-26 08:39 55.08410 23.71985 11483 ft 337 kts 129°
2026-04-26 08:39 55.07228 23.75435 11161 ft 326 kts 106°
2026-04-26 08:39 55.06570 23.79089 11025 ft 315 kts 102°
2026-04-26 08:39 55.05965 23.82716 10928 ft 309 kts 101°
2026-04-26 08:40 55.05481 23.86356 10735 ft 305 kts 88°
2026-04-26 08:40 55.05578 23.90000 10352 ft 300 kts 79°
2026-04-26 08:40 55.05745 23.93636 9964 ft 301 kts 79°
2026-04-26 08:40 55.05915 23.97260 9564 ft 295 kts 79°
2026-04-26 08:41 55.06084 24.00771 9181 ft 286 kts 78°
2026-04-26 08:41 55.06193 24.03037 8954 ft 279 kts 78°
2026-04-26 08:41 55.06358 24.06445 8617 ft 278 kts 78°
2026-04-26 08:41 55.06518 24.09759 8296 ft 277 kts 78°
2026-04-26 08:42 55.06679 24.13105 7963 ft 276 kts 78°
2026-04-26 08:42 55.06838 24.16428 7631 ft 274 kts 78°
2026-04-26 08:42 55.06995 24.19733 7304 ft 273 kts 78°
2026-04-26 08:42 55.07151 24.23028 6972 ft 272 kts 78°
2026-04-26 08:43 55.07305 24.26308 6652 ft 271 kts 78°
2026-04-26 08:43 55.07458 24.29584 6319 ft 270 kts 78°
2026-04-26 08:43 55.07610 24.32850 5971 ft 269 kts 78°
2026-04-26 08:43 55.07761 24.36106 5644 ft 270 kts 78°
2026-04-26 08:44 55.07912 24.39380 5263 ft 271 kts 78°
2026-04-26 08:44 55.08061 24.42651 4969 ft 269 kts 79°
2026-04-26 08:44 55.08013 24.45865 4861 ft 267 kts 99°
2026-04-26 08:44 55.07145 24.48715 4682 ft 269 kts 130°
2026-04-26 08:45 55.05811 24.50953 4499 ft 263 kts 135°
2026-04-26 08:45 55.04458 24.53015 4359 ft 255 kts 148°
2026-04-26 08:45 55.02825 24.53928 4155 ft 242 kts 183°
2026-04-26 08:45 55.01252 24.53401 3979 ft 223 kts 209°
2026-04-26 08:46 54.99865 24.52343 3840 ft 210 kts 217°
2026-04-26 08:46 54.98927 24.50753 3697 ft 171 kts 253°
2026-04-26 08:46 54.98569 24.48897 3578 ft 158 kts 268°
2026-04-26 08:46 54.98383 24.47026 3497 ft 156 kts 271°
2026-04-26 08:47 54.98244 24.45151 3406 ft 156 kts 272°
2026-04-26 08:47 54.98132 24.43312 3286 ft 153 kts 273°
2026-04-26 08:47 54.98033 24.41472 3160 ft 152 kts 274°
2026-04-26 08:47 54.97938 24.39647 3062 ft 150 kts 274°
2026-04-26 08:48 54.97846 24.37822 3002 ft 153 kts 272°
2026-04-26 08:48 54.97754 24.35977 3049 ft 150 kts 272°
2026-04-26 08:48 54.97664 24.34233 3013 ft 141 kts 273°
2026-04-26 08:48 54.97583 24.32594 2851 ft 133 kts 273°
2026-04-26 08:49 54.97502 24.31030 2690 ft 128 kts 275°
2026-04-26 08:49 54.97429 24.29495 2525 ft 127 kts 275°
2026-04-26 08:49 54.97355 24.27973 2354 ft 126 kts 275°
2026-04-26 08:49 54.97282 24.26461 2171 ft 127 kts 274°
2026-04-26 08:50 54.97206 24.24928 2019 ft 126 kts 274°
2026-04-26 08:50 54.97131 24.23417 1845 ft 125 kts 274°
2026-04-26 08:50 54.97056 24.21904 1680 ft 125 kts 275°
2026-04-26 08:50 54.96982 24.20403 1510 ft 125 kts 275°
2026-04-26 08:51 54.96834 24.17393 1077 ft 130 kts 270°
2026-04-26 08:51 54.96751 24.15587 1116 ft 144 kts 269°
2026-04-26 08:51 54.96641 24.13942 857 ft 132 kts 270°
2026-04-26 08:52 54.96567 24.12370 537 ft 135 kts 271°
2026-04-26 08:52 54.96498 24.10719 307 ft 136 kts 268°
2026-04-26 08:52 54.96425 24.09232 269 ft 97 kts 264°
2026-04-26 08:52 54.96382 24.08336 273 ft 69 kts 265°
2026-04-26 08:53 54.96343 24.07595 268 ft 35 kts 265°
2026-04-26 08:53 54.96417 24.07345 270 ft 26 kts 349°
2026-04-26 08:53 54.96522 24.07331 270 ft 10 kts 353°
2026-04-26 08:53 54.96600 24.07312 270 ft 11 kts 352°
2026-04-26 08:54 54.96632 24.07368 270 ft 7 kts 97°
2026-04-26 08:54 54.96628 24.07398 270 ft 2 kts 105°
2026-04-26 08:54 54.96627 24.07399 270 ft 0 kts 105°